owner,sensor,date,latitude,longitude,vertical_datum,direction_of_sea_water_velocity,sea_water_speed,upward_sea_water_velocity,qcFlag 
TABS,ioos:station:wmo:42049:1,2013-11-01T00:00:00Z,28.3507,-96.0058,2.0,196.5515553,19.72745549,-99999.0,'11111222,11111222,99999999' 
TABS,ioos:station:wmo:42049:1,2013-11-01T00:30:00Z,28.3507,-96.0058,2.0,205.4690095,16.60360503,-99999.0,'11111222,11111222,99999999' 
TABS,ioos:station:wmo:42049:1,2013-11-01T01:00:00Z,28.3507,-96.0058,2.0,214.300366,14.05412751,-99999.0,'11111222,11111222,99999999' 
TABS,ioos:station:wmo:42049:1,2013-11-01T01:30:00Z,28.3507,-96.0058,2.0,227.696115,15.48156646,-99999.0,'11111222,11111222,99999999' 
TABS,ioos:station:wmo:42049:1,2013-11-01T02:00:00Z,28.3507,-96.0058,2.0,195.8094781,53.36884953,-99999.0,'11111222,11111222,99999999' 
TABS,ioos:station:wmo:42049:1,2013-11-01T02:30:00Z,28.3507,-96.0058,2.0,200.5754592,51.13176899,-99999.0,'11111222,11111222,99999999' 
TABS,ioos:station:wmo:42049:1,2013-11-01T03:00:00Z,28.3507,-96.0058,2.0,203.37921,46.99874573,-99999.0,'11111222,11111222,99999999' 
TABS,ioos:station:wmo:42049:1,2013-11-01T03:30:00Z,28.3507,-96.0058,2.0,215.1233508,50.99568315,-99999.0,'11111222,11111222,99999999' 
TABS,ioos:station:wmo:42049:1,2013-11-01T04:00:00Z,28.3507,-96.0058,2.0,221.4029756,55.79455619,-99999.0,'11111222,11111222,99999999' 
TABS,ioos:station:wmo:42049:1,2013-11-01T04:30:00Z,28.3507,-96.0058,2.0,226.8579509,51.46201123,-99999.0,'11111222,11111222,99999999' 
TABS,ioos:station:wmo:42049:1,2013-11-01T05:00:00Z,28.3507,-96.0058,2.0,227.3646581,47.46608157,-99999.0,'11111222,11111222,99999999' 
TABS,ioos:station:wmo:42049:1,2013-11-01T05:30:00Z,28.3507,-96.0058,2.0,230.3140282,49.54782034,-99999.0,'11111222,11111222,99999999' 
TABS,ioos:station:wmo:42049:1,2013-11-01T06:00:00Z,28.3507,-96.0058,2.0,235.8979614,46.71250903,-99999.0,'11111222,11111222,99999999' 
TABS,ioos:station:wmo:42049:1,2013-11-01T06:30:00Z,28.3507,-96.0058,2.0,233.5997871,45.34752584,-99999.0,'11111222,11111222,99999999' 
TABS,ioos:station:wmo:42049:1,2013-11-01T07:00:00Z,28.3507,-96.0058,2.0,237.4300706,41.98219146,-99999.0,'11111222,11111222,99999999' 
TABS,ioos:station:wmo:42049:1,2013-11-01T07:30:00Z,28.3507,-96.0058,2.0,241.5531331,41.00028536,-99999.0,'11111222,11111222,99999999' 
TABS,ioos:station:wmo:42049:1,2013-11-01T08:00:00Z,28.3507,-96.0058,2.0,244.3586332,40.20973141,-99999.0,'11111222,11111222,99999999' 
TABS,ioos:station:wmo:42049:1,2013-11-01T08:30:00Z,28.3507,-96.0058,2.0,254.3230974,35.4174378,-99999.0,'11111222,11111222,99999999' 
TABS,ioos:station:wmo:42049:1,2013-11-01T09:00:00Z,28.3507,-96.0058,2.0,258.6082621,31.74535084,-99999.0,'11111222,11111222,99999999' 
TABS,ioos:station:wmo:42049:1,2013-11-01T09:30:00Z,28.3507,-96.0058,2.0,262.879776,27.35089944,-99999.0,'11111222,11111222,99999999' 
TABS,ioos:station:wmo:42049:1,2013-11-01T10:00:00Z,28.3507,-96.0058,2.0,261.1746121,25.42094412,-99999.0,'11111222,11111222,99999999' 
TABS,ioos:station:wmo:42049:1,2013-11-01T10:30:00Z,28.3507,-96.0058,2.0,262.7341492,22.77284567,-99999.0,'11111222,11111222,99999999' 
TABS,ioos:station:wmo:42049:1,2013-11-01T11:00:00Z,28.3507,-96.0058,2.0,263.8035332,18.43770593,-99999.0,'11111222,11111222,99999999' 
TABS,ioos:station:wmo:42049:1,2013-11-01T11:30:00Z,28.3507,-96.0058,2.0,267.4680868,17.20679226,-99999.0,'11111222,11111222,99999999' 
TABS,ioos:station:wmo:42049:1,2013-11-01T12:00:00Z,28.3507,-96.0058,2.0,275.1413634,12.61072956,-99999.0,'11111222,11111222,99999999' 
TABS,ioos:station:wmo:42049:1,2013-11-01T12:30:00Z,28.3507,-96.0058,2.0,277.1740483,11.69151829,-99999.0,'11111222,11111222,99999999' 
TABS,ioos:station:wmo:42049:1,2013-11-01T13:00:00Z,28.3507,-96.0058,2.0,272.7981017,8.400011905,-99999.0,'11133222,11111222,99999999' 
TABS,ioos:station:wmo:42049:1,2013-11-01T13:30:00Z,28.3507,-96.0058,2.0,260.8347481,7.282973294,-99999.0,'11133222,11111222,99999999' 
TABS,ioos:station:wmo:42049:1,2013-11-01T14:00:00Z,28.3507,-96.0058,2.0,259.658682,11.36459414,-99999.0,'11111222,11111222,99999999' 
TABS,ioos:station:wmo:42049:1,2013-11-01T14:30:00Z,28.3507,-96.0058,2.0,262.0515639,11.57115379,-99999.0,'11111222,11111222,99999999' 
TABS,ioos:station:wmo:42049:1,2013-11-01T15:00:00Z,28.3507,-96.0058,2.0,266.532922,11.08027527,-99999.0,'11111222,11111222,99999999' 
TABS,ioos:station:wmo:42049:1,2013-11-01T15:30:00Z,28.3507,-96.0058,2.0,265.8870074,10.59728739,-99999.0,'11111222,11111222,99999999' 
TABS,ioos:station:wmo:42049:1,2013-11-01T16:00:00Z,28.3507,-96.0058,2.0,275.1894451,9.61942306,-99999.0,'11133222,11111222,99999999' 
TABS,ioos:station:wmo:42049:1,2013-11-01T16:30:00Z,28.3507,-96.0058,2.0,277.0441817,9.622624382,-99999.0,'11133222,11111222,99999999' 
TABS,ioos:station:wmo:42049:1,2013-11-01T17:00:00Z,28.3507,-96.0058,2.0,285.7937654,11.38997805,-99999.0,'11111222,11111222,99999999' 
TABS,ioos:station:wmo:42049:1,2013-11-01T17:30:00Z,28.3507,-96.0058,2.0,323.2585292,21.46405367,-99999.0,'11111222,11111222,99999999' 
TABS,ioos:station:wmo:42049:1,2013-11-01T18:00:00Z,28.3507,-96.0058,2.0,325.9799724,24.54034433,-99999.0,'11111222,11111222,99999999' 
TABS,ioos:station:wmo:42049:1,2013-11-01T18:30:00Z,28.3507,-96.0058,2.0,322.0675943,23.5060439,-99999.0,'11111222,11111222,99999999' 
TABS,ioos:station:wmo:42049:1,2013-11-01T19:00:00Z,28.3507,-96.0058,2.0,326.3304747,23.5387043,-99999.0,'11111222,11111222,99999999' 
TABS,ioos:station:wmo:42049:1,2013-11-01T19:30:00Z,28.3507,-96.0058,2.0,322.6924462,22.24064972,-99999.0,'11111222,11111222,99999999' 
TABS,ioos:station:wmo:42049:1,2013-11-01T20:00:00Z,28.3507,-96.0058,2.0,320.1627872,20.66771637,-99999.0,'11111222,11111222,99999999' 
TABS,ioos:station:wmo:42049:1,2013-11-01T20:30:00Z,28.3507,-96.0058,2.0,323.4426338,18.35027248,-99999.0,'11111222,11111222,99999999' 
TABS,ioos:station:wmo:42049:1,2013-11-01T21:00:00Z,28.3507,-96.0058,2.0,336.0719737,23.81697924,-99999.0,'11111222,11111222,99999999' 
TABS,ioos:station:wmo:42049:1,2013-11-01T21:30:00Z,28.3507,-96.0058,2.0,333.5272625,27.83908224,-99999.0,'11111222,11111222,99999999' 
TABS,ioos:station:wmo:42049:1,2013-11-01T22:00:00Z,28.3507,-96.0058,2.0,334.8514868,29.13144864,-99999.0,'11111222,11111222,99999999' 
TABS,ioos:station:wmo:42049:1,2013-11-01T22:30:00Z,28.3507,-96.0058,2.0,340.1631088,28.17168082,-99999.0,'11111222,11111222,99999999' 
TABS,ioos:station:wmo:42049:1,2013-11-01T23:00:00Z,28.3507,-96.0058,2.0,342.1104961,22.26660504,-99999.0,'11111222,11111222,99999999' 
TABS,ioos:station:wmo:42049:1,2013-11-01T23:30:00Z,28.3507,-96.0058,2.0,345.5822365,22.9322524,-99999.0,'11111222,11111222,99999999' 
TABS,ioos:station:wmo:42049:1,2013-11-02T00:00:00Z,28.3507,-96.0058,2.0,349.7292308,21.19971698,-99999.0,'11111222,11111222,99999999' 
TABS,ioos:station:wmo:42049:1,2013-11-02T00:30:00Z,28.3507,-96.0058,2.0,352.7948131,20.33055336,-99999.0,'11111222,11111222,99999999' 
TABS,ioos:station:wmo:42049:1,2013-11-02T01:00:00Z,28.3507,-96.0058,2.0,343.9925458,15.15774719,-99999.0,'11111222,11111222,99999999' 
TABS,ioos:station:wmo:42049:1,2013-11-02T01:30:00Z,28.3507,-96.0058,2.0,346.2254573,15.41329945,-99999.0,'11111222,11111222,99999999' 
TABS,ioos:station:wmo:42049:1,2013-11-02T02:00:00Z,28.3507,-96.0058,2.0,349.8309251,13.98977484,-99999.0,'11111222,11111222,99999999' 
TABS,ioos:station:wmo:42049:1,2013-11-02T02:30:00Z,28.3507,-96.0058,2.0,7.069045829,8.857324653,-99999.0,'11133222,11111222,99999999' 
TABS,ioos:station:wmo:42049:1,2013-11-02T03:00:00Z,28.3507,-96.0058,2.0,1.154362203,10.92221589,-99999.0,'11111222,11111222,99999999' 
TABS,ioos:station:wmo:42049:1,2013-11-02T03:30:00Z,28.3507,-96.0058,2.0,339.1650959,10.57128185,-99999.0,'11111222,11111222,99999999' 
TABS,ioos:station:wmo:42049:1,2013-11-02T04:00:00Z,28.3507,-96.0058,2.0,319.1071074,6.812789443,-99999.0,'11133222,11111222,99999999' 
TABS,ioos:station:wmo:42049:1,2013-11-02T04:30:00Z,28.3507,-96.0058,2.0,344.0325318,7.052091888,-99999.0,'11133222,11111222,99999999' 
TABS,ioos:station:wmo:42049:1,2013-11-02T05:00:00Z,28.3507,-96.0058,2.0,14.29538271,15.02523544,-99999.0,'11111222,11111222,99999999' 
TABS,ioos:station:wmo:42049:1,2013-11-02T05:30:00Z,28.3507,-96.0058,2.0,14.78125233,9.328708378,-99999.0,'11133222,11111222,99999999' 
TABS,ioos:station:wmo:42049:1,2013-11-02T06:00:00Z,28.3507,-96.0058,2.0,338.306308,4.950646422,-99999.0,'11133222,11111222,99999999' 
TABS,ioos:station:wmo:42049:1,2013-11-02T06:30:00Z,28.3507,-96.0058,2.0,332.2762191,3.095351353,-99999.0,'11133222,11111222,99999999' 
TABS,ioos:station:wmo:42049:1,2013-11-02T07:00:00Z,28.3507,-96.0058,2.0,46.04172947,0.777946014,-99999.0,'11133222,11111222,99999999' 
TABS,ioos:station:wmo:42049:1,2013-11-02T07:30:00Z,28.3507,-96.0058,2.0,182.6940675,0.850940656,-99999.0,'11133222,11111222,99999999' 
TABS,ioos:station:wmo:42049:1,2013-11-02T08:00:00Z,28.3507,-96.0058,2.0,139.7844133,3.221490338,-99999.0,'11133222,11111222,99999999' 
TABS,ioos:station:wmo:42049:1,2013-11-02T08:30:00Z,28.3507,-96.0058,2.0,218.884195,5.177200015,-99999.0,'11133222,11111222,99999999' 
TABS,ioos:station:wmo:42049:1,2013-11-02T09:00:00Z,28.3507,-96.0058,2.0,232.5281678,6.476357001,-99999.0,'11133222,11111222,99999999' 
TABS,ioos:station:wmo:42049:1,2013-11-02T09:30:00Z,28.3507,-96.0058,2.0,176.6564212,2.914961406,-99999.0,'11133222,11111222,99999999' 
TABS,ioos:station:wmo:42049:1,2013-11-02T10:00:00Z,28.3507,-96.0058,2.0,227.1665939,9.163585543,-99999.0,'11133222,11111222,99999999' 
TABS,ioos:station:wmo:42049:1,2013-11-02T10:30:00Z,28.3507,-96.0058,2.0,252.4978533,10.87335275,-99999.0,'11111222,11111222,99999999' 
TABS,ioos:station:wmo:42049:1,2013-11-02T11:00:00Z,28.3507,-96.0058,2.0,236.503156,10.67249268,-99999.0,'11111222,11111222,99999999' 
TABS,ioos:station:wmo:42049:1,2013-11-02T11:30:00Z,28.3507,-96.0058,2.0,219.8369139,9.272432259,-99999.0,'11133222,11111222,99999999' 
TABS,ioos:station:wmo:42049:1,2013-11-02T12:00:00Z,28.3507,-96.0058,2.0,230.7991123,14.06563543,-99999.0,'11111222,11111222,99999999' 
TABS,ioos:station:wmo:42049:1,2013-11-02T12:30:00Z,28.3507,-96.0058,2.0,241.4082151,12.01519871,-99999.0,'11111222,11111222,99999999' 
TABS,ioos:station:wmo:42049:1,2013-11-02T13:00:00Z,28.3507,-96.0058,2.0,233.8055454,12.37886101,-99999.0,'11111222,11111222,99999999' 
TABS,ioos:station:wmo:42049:1,2013-11-02T13:30:00Z,28.3507,-96.0058,2.0,241.935647,35.73117686,-99999.0,'11111222,11111222,99999999' 
TABS,ioos:station:wmo:42049:1,2013-11-02T14:00:00Z,28.3507,-96.0058,2.0,242.8494028,46.85253995,-99999.0,'11111222,11111222,99999999' 
TABS,ioos:station:wmo:42049:1,2013-11-02T14:30:00Z,28.3507,-96.0058,2.0,247.4271908,45.53847714,-99999.0,'11111222,11111222,99999999' 
TABS,ioos:station:wmo:42049:1,2013-11-02T15:00:00Z,28.3507,-96.0058,2.0,242.5268676,49.11916123,-99999.0,'11111222,11111222,99999999' 
TABS,ioos:station:wmo:42049:1,2013-11-02T15:30:00Z,28.3507,-96.0058,2.0,247.1886889,44.05562961,-99999.0,'11111222,11111222,99999999' 
TABS,ioos:station:wmo:42049:1,2013-11-02T16:00:00Z,28.3507,-96.0058,2.0,241.0767471,52.39518298,-99999.0,'11111222,11111222,99999999' 
TABS,ioos:station:wmo:42049:1,2013-11-02T16:30:00Z,28.3507,-96.0058,2.0,247.5556878,48.35253561,-99999.0,'11111222,11111222,99999999' 
TABS,ioos:station:wmo:42049:1,2013-11-02T17:00:00Z,28.3507,-96.0058,2.0,245.3075611,46.24870593,-99999.0,'11111222,11111222,99999999' 
TABS,ioos:station:wmo:42049:1,2013-11-02T17:30:00Z,28.3507,-96.0058,2.0,242.2946792,50.8045746,-99999.0,'11111222,11111222,99999999' 
TABS,ioos:station:wmo:42049:1,2013-11-02T18:00:00Z,28.3507,-96.0058,2.0,246.9506128,44.26354934,-99999.0,'11111222,11111222,99999999' 
TABS,ioos:station:wmo:42049:1,2013-11-02T18:30:00Z,28.3507,-96.0058,2.0,245.6653786,43.65877346,-99999.0,'11111222,11111222,99999999' 
TABS,ioos:station:wmo:42049:1,2013-11-02T19:00:00Z,28.3507,-96.0058,2.0,241.230425,50.1160583,-99999.0,'11111222,11111222,99999999' 
TABS,ioos:station:wmo:42049:1,2013-11-02T19:30:00Z,28.3507,-96.0058,2.0,241.1053963,45.116405,-99999.0,'11111222,11111222,99999999' 
TABS,ioos:station:wmo:42049:1,2013-11-02T20:00:00Z,28.3507,-96.0058,2.0,245.6534704,48.975305,-99999.0,'11111222,11111222,99999999' 
TABS,ioos:station:wmo:42049:1,2013-11-02T20:30:00Z,28.3507,-96.0058,2.0,247.0839177,43.35134715,-99999.0,'11111222,11111222,99999999' 
TABS,ioos:station:wmo:42049:1,2013-11-02T21:00:00Z,28.3507,-96.0058,2.0,244.1371071,40.85156056,-99999.0,'11111222,11111222,99999999' 
TABS,ioos:station:wmo:42049:1,2013-11-02T21:30:00Z,28.3507,-96.0058,2.0,243.3036424,43.04889313,-99999.0,'11111222,11111222,99999999' 
TABS,ioos:station:wmo:42049:1,2013-11-02T22:00:00Z,28.3507,-96.0058,2.0,244.6126089,40.0251321,-99999.0,'11111222,11111222,99999999' 
TABS,ioos:station:wmo:42049:1,2013-11-02T22:30:00Z,28.3507,-96.0058,2.0,240.202274,39.26073102,-99999.0,'11111222,11111222,99999999' 
TABS,ioos:station:wmo:42049:1,2013-11-02T23:00:00Z,28.3507,-96.0058,2.0,245.1356013,37.36327207,-99999.0,'11111222,11111222,99999999' 
TABS,ioos:station:wmo:42049:1,2013-11-02T23:30:00Z,28.3507,-96.0058,2.0,242.0347178,34.78123776,-99999.0,'11111222,11111222,99999999' 
TABS,ioos:station:wmo:42049:1,2013-11-03T00:00:00Z,28.3507,-96.0058,2.0,240.0409006,44.19512417,-99999.0,'11111222,11111222,99999999' 
TABS,ioos:station:wmo:42049:1,2013-11-03T00:30:00Z,28.3507,-96.0058,2.0,244.1836655,43.10165774,-99999.0,'11111222,11111222,99999999' 
TABS,ioos:station:wmo:42049:1,2013-11-03T01:00:00Z,28.3507,-96.0058,2.0,251.5396389,43.42440097,-99999.0,'11111222,11111222,99999999' 
TABS,ioos:station:wmo:42049:1,2013-11-03T01:30:00Z,28.3507,-96.0058,2.0,250.8750494,40.19862311,-99999.0,'11111222,11111222,99999999' 
TABS,ioos:station:wmo:42049:1,2013-11-03T02:00:00Z,28.3507,-96.0058,2.0,255.2928522,40.41405325,-99999.0,'11111222,11111222,99999999' 
TABS,ioos:station:wmo:42049:1,2013-11-03T02:30:00Z,28.3507,-96.0058,2.0,259.851843,37.51688953,-99999.0,'11111222,11111222,99999999' 
TABS,ioos:station:wmo:42049:1,2013-11-03T03:00:00Z,28.3507,-96.0058,2.0,255.1479026,45.84145068,-99999.0,'11111222,11111222,99999999' 
TABS,ioos:station:wmo:42049:1,2013-11-03T03:30:00Z,28.3507,-96.0058,2.0,256.0973797,36.2931302,-99999.0,'11111222,11111222,99999999' 
TABS,ioos:station:wmo:42049:1,2013-11-03T04:00:00Z,28.3507,-96.0058,2.0,259.0691807,41.45201563,-99999.0,'11111222,11111222,99999999' 
TABS,ioos:station:wmo:42049:1,2013-11-03T04:30:00Z,28.3507,-96.0058,2.0,259.3823774,43.47427975,-99999.0,'11111222,11111222,99999999' 
TABS,ioos:station:wmo:42049:1,2013-11-03T05:00:00Z,28.3507,-96.0058,2.0,260.9509101,41.90146179,-99999.0,'11111222,11111222,99999999' 
TABS,ioos:station:wmo:42049:1,2013-11-03T05:30:00Z,28.3507,-96.0058,2.0,263.2595387,38.76793134,-99999.0,'11111222,11111222,99999999' 
TABS,ioos:station:wmo:42049:1,2013-11-03T06:00:00Z,28.3507,-96.0058,2.0,264.2324752,37.31888798,-99999.0,'11111222,11111222,99999999' 
TABS,ioos:station:wmo:42049:1,2013-11-03T06:30:00Z,28.3507,-96.0058,2.0,266.2643182,35.30499823,-99999.0,'11111222,11111222,99999999' 
TABS,ioos:station:wmo:42049:1,2013-11-03T07:00:00Z,28.3507,-96.0058,2.0,263.7405574,35.86377838,-99999.0,'11111222,11111222,99999999' 
TABS,ioos:station:wmo:42049:1,2013-11-03T07:30:00Z,28.3507,-96.0058,2.0,262.6734264,34.26976802,-99999.0,'11111222,11111222,99999999' 
TABS,ioos:station:wmo:42049:1,2013-11-03T08:00:00Z,28.3507,-96.0058,2.0,261.6178527,35.74176409,-99999.0,'11111222,11111222,99999999' 
TABS,ioos:station:wmo:42049:1,2013-11-03T08:30:00Z,28.3507,-96.0058,2.0,259.693285,34.82183941,-99999.0,'11111222,11111222,99999999' 
TABS,ioos:station:wmo:42049:1,2013-11-03T09:00:00Z,28.3507,-96.0058,2.0,258.2232898,34.93532453,-99999.0,'11111222,11111222,99999999' 
TABS,ioos:station:wmo:42049:1,2013-11-03T09:30:00Z,28.3507,-96.0058,2.0,250.5241,31.3433406,-99999.0,'11111222,11111222,99999999' 
TABS,ioos:station:wmo:42049:1,2013-11-03T10:00:00Z,28.3507,-96.0058,2.0,249.8704917,32.5161037,-99999.0,'11111222,11111222,99999999' 
TABS,ioos:station:wmo:42049:1,2013-11-03T10:30:00Z,28.3507,-96.0058,2.0,251.5192277,31.89474251,-99999.0,'11111222,11111222,99999999' 
TABS,ioos:station:wmo:42049:1,2013-11-03T11:00:00Z,28.3507,-96.0058,2.0,248.0385304,31.98057535,-99999.0,'11111222,11111222,99999999' 
TABS,ioos:station:wmo:42049:1,2013-11-03T11:30:00Z,28.3507,-96.0058,2.0,250.2345709,31.87802378,-99999.0,'11111222,11111222,99999999' 
TABS,ioos:station:wmo:42049:1,2013-11-03T12:00:00Z,28.3507,-96.0058,2.0,249.1620695,31.68225055,-99999.0,'11111222,11111222,99999999' 
TABS,ioos:station:wmo:42049:1,2013-11-03T12:30:00Z,28.3507,-96.0058,2.0,249.1419392,31.56877571,-99999.0,'11111222,11111222,99999999' 
TABS,ioos:station:wmo:42049:1,2013-11-03T13:00:00Z,28.3507,-96.0058,2.0,242.6746334,30.34611178,-99999.0,'11111222,11111222,99999999' 
TABS,ioos:station:wmo:42049:1,2013-11-03T13:30:00Z,28.3507,-96.0058,2.0,241.0745182,30.51690843,-99999.0,'11111222,11111222,99999999' 
TABS,ioos:station:wmo:42049:1,2013-11-03T14:00:00Z,28.3507,-96.0058,2.0,242.7605547,30.41262896,-99999.0,'11111222,11111222,99999999' 
TABS,ioos:station:wmo:42049:1,2013-11-03T14:30:00Z,28.3507,-96.0058,2.0,238.4928396,30.94144955,-99999.0,'11111222,11111222,99999999' 
TABS,ioos:station:wmo:42049:1,2013-11-03T15:00:00Z,28.3507,-96.0058,2.0,237.378455,29.58730978,-99999.0,'11111222,11111222,99999999' 
TABS,ioos:station:wmo:42049:1,2013-11-03T15:30:00Z,28.3507,-96.0058,2.0,238.6311155,29.3732957,-99999.0,'11111222,11111222,99999999' 
TABS,ioos:station:wmo:42049:1,2013-11-03T16:00:00Z,28.3507,-96.0058,2.0,245.9514598,28.51501359,-99999.0,'11111222,11111222,99999999' 
TABS,ioos:station:wmo:42049:1,2013-11-03T16:30:00Z,28.3507,-96.0058,2.0,252.4983963,27.16757258,-99999.0,'11111222,11111222,99999999' 
TABS,ioos:station:wmo:42049:1,2013-11-03T17:00:00Z,28.3507,-96.0058,2.0,256.4202618,25.85269425,-99999.0,'11111222,11111222,99999999' 
TABS,ioos:station:wmo:42049:1,2013-11-03T17:30:00Z,28.3507,-96.0058,2.0,256.709932,27.36276667,-99999.0,'11111222,11111222,99999999' 
TABS,ioos:station:wmo:42049:1,2013-11-03T18:00:00Z,28.3507,-96.0058,2.0,253.8448654,27.81844712,-99999.0,'11111222,11111222,99999999' 
TABS,ioos:station:wmo:42049:1,2013-11-03T18:30:00Z,28.3507,-96.0058,2.0,248.0913554,26.88130391,-99999.0,'11111222,11111222,99999999' 
TABS,ioos:station:wmo:42049:1,2013-11-03T19:00:00Z,28.3507,-96.0058,2.0,253.5288139,25.46497202,-99999.0,'11111222,11111222,99999999' 
TABS,ioos:station:wmo:42049:1,2013-11-03T19:30:00Z,28.3507,-96.0058,2.0,250.5861038,22.7748831,-99999.0,'11111222,11111222,99999999' 
TABS,ioos:station:wmo:42049:1,2013-11-03T20:00:00Z,28.3507,-96.0058,2.0,253.8585515,22.12204783,-99999.0,'11111222,11111222,99999999' 
TABS,ioos:station:wmo:42049:1,2013-11-03T20:30:00Z,28.3507,-96.0058,2.0,248.1156025,20.60477615,-99999.0,'11111222,11111222,99999999' 
TABS,ioos:station:wmo:42049:1,2013-11-03T21:00:00Z,28.3507,-96.0058,2.0,247.5809946,18.6170379,-99999.0,'11111222,11111222,99999999' 
TABS,ioos:station:wmo:42049:1,2013-11-03T21:30:00Z,28.3507,-96.0058,2.0,249.2765995,22.89100478,-99999.0,'11111222,11111222,99999999' 
TABS,ioos:station:wmo:42049:1,2013-11-03T22:00:00Z,28.3507,-96.0058,2.0,253.7866373,29.11800989,-99999.0,'11111222,11111222,99999999' 
TABS,ioos:station:wmo:42049:1,2013-11-03T22:30:00Z,28.3507,-96.0058,2.0,251.0415476,38.44541195,-99999.0,'11111222,11111222,99999999' 
TABS,ioos:station:wmo:42049:1,2013-11-03T23:00:00Z,28.3507,-96.0058,2.0,259.6133777,42.82163939,-99999.0,'11111222,11111222,99999999' 
TABS,ioos:station:wmo:42049:1,2013-11-03T23:30:00Z,28.3507,-96.0058,2.0,262.2827503,40.58757076,-99999.0,'11111222,11111222,99999999' 
TABS,ioos:station:wmo:42049:1,2013-11-04T00:00:00Z,28.3507,-96.0058,2.0,253.4914705,37.62075225,-99999.0,'11111222,11111222,99999999' 
TABS,ioos:station:wmo:42049:1,2013-11-04T00:30:00Z,28.3507,-96.0058,2.0,250.6991404,41.44954041,-99999.0,'11111222,11111222,99999999' 
TABS,ioos:station:wmo:42049:1,2013-11-04T01:00:00Z,28.3507,-96.0058,2.0,246.552231,38.40092837,-99999.0,'11111222,11111222,99999999' 
TABS,ioos:station:wmo:42049:1,2013-11-04T01:30:00Z,28.3507,-96.0058,2.0,249.7191813,38.68839878,-99999.0,'11111222,11111222,99999999' 
TABS,ioos:station:wmo:42049:1,2013-11-04T02:00:00Z,28.3507,-96.0058,2.0,241.7506953,47.93963913,-99999.0,'11111222,11111222,99999999' 
TABS,ioos:station:wmo:42049:1,2013-11-04T02:30:00Z,28.3507,-96.0058,2.0,241.8265247,42.86888965,-99999.0,'11111222,11111222,99999999' 
TABS,ioos:station:wmo:42049:1,2013-11-04T03:00:00Z,28.3507,-96.0058,2.0,239.3535221,40.21703619,-99999.0,'11111222,11111222,99999999' 
TABS,ioos:station:wmo:42049:1,2013-11-04T03:30:00Z,28.3507,-96.0058,2.0,241.8316621,37.4106402,-99999.0,'11111222,11111222,99999999' 
TABS,ioos:station:wmo:42049:1,2013-11-04T04:00:00Z,28.3507,-96.0058,2.0,239.3048866,37.26019324,-99999.0,'11111222,11111222,99999999' 
TABS,ioos:station:wmo:42049:1,2013-11-04T04:30:00Z,28.3507,-96.0058,2.0,235.579479,33.73683151,-99999.0,'11111222,11111222,99999999' 
TABS,ioos:station:wmo:42049:1,2013-11-04T05:00:00Z,28.3507,-96.0058,2.0,236.1499234,31.84823543,-99999.0,'11111222,11111222,99999999' 
TABS,ioos:station:wmo:42049:1,2013-11-04T05:30:00Z,28.3507,-96.0058,2.0,231.9709798,27.78968334,-99999.0,'11111222,11111222,99999999' 
TABS,ioos:station:wmo:42049:1,2013-11-04T06:00:00Z,28.3507,-96.0058,2.0,232.2649934,26.5030187,-99999.0,'11111222,11111222,99999999' 
TABS,ioos:station:wmo:42049:1,2013-11-04T06:30:00Z,28.3507,-96.0058,2.0,232.9215584,24.21615989,-99999.0,'11111222,11111222,99999999' 
TABS,ioos:station:wmo:42049:1,2013-11-04T07:00:00Z,28.3507,-96.0058,2.0,229.8802629,26.18009358,-99999.0,'11111222,11111222,99999999' 
TABS,ioos:station:wmo:42049:1,2013-11-04T07:30:00Z,28.3507,-96.0058,2.0,229.3349852,24.50773347,-99999.0,'11111222,11111222,99999999' 
TABS,ioos:station:wmo:42049:1,2013-11-04T08:00:00Z,28.3507,-96.0058,2.0,236.1067523,25.06983247,-99999.0,'11111222,11111222,99999999' 
TABS,ioos:station:wmo:42049:1,2013-11-04T08:30:00Z,28.3507,-96.0058,2.0,231.2700199,24.34282235,-99999.0,'11111222,11111222,99999999' 
TABS,ioos:station:wmo:42049:1,2013-11-04T09:00:00Z,28.3507,-96.0058,2.0,233.29956,24.29610668,-99999.0,'11111222,11111222,99999999' 
TABS,ioos:station:wmo:42049:1,2013-11-04T09:30:00Z,28.3507,-96.0058,2.0,233.5042437,32.13068627,-99999.0,'11111222,11111222,99999999' 
TABS,ioos:station:wmo:42049:1,2013-11-04T10:00:00Z,28.3507,-96.0058,2.0,228.316228,28.60087411,-99999.0,'11111222,11111222,99999999' 
TABS,ioos:station:wmo:42049:1,2013-11-04T10:30:00Z,28.3507,-96.0058,2.0,229.0842641,28.09400114,-99999.0,'11111222,11111222,99999999' 
TABS,ioos:station:wmo:42049:1,2013-11-04T11:00:00Z,28.3507,-96.0058,2.0,221.2093707,31.76908718,-99999.0,'11111222,11111222,99999999' 
TABS,ioos:station:wmo:42049:1,2013-11-04T11:30:00Z,28.3507,-96.0058,2.0,213.3199256,44.25490368,-99999.0,'11111222,11111222,99999999' 
TABS,ioos:station:wmo:42049:1,2013-11-04T12:00:00Z,28.3507,-96.0058,2.0,210.5816506,41.43326321,-99999.0,'11111222,11111222,99999999' 
TABS,ioos:station:wmo:42049:1,2013-11-04T12:30:00Z,28.3507,-96.0058,2.0,207.2154785,40.56041666,-99999.0,'11111222,11111222,99999999' 
TABS,ioos:station:wmo:42049:1,2013-11-04T13:00:00Z,28.3507,-96.0058,2.0,207.0291778,36.96789012,-99999.0,'11111222,11111222,99999999' 
TABS,ioos:station:wmo:42049:1,2013-11-04T13:30:00Z,28.3507,-96.0058,2.0,209.5771574,33.52921264,-99999.0,'11111222,11111222,99999999' 
TABS,ioos:station:wmo:42049:1,2013-11-04T14:00:00Z,28.3507,-96.0058,2.0,212.4500512,33.71424921,-99999.0,'11111222,11111222,99999999' 
TABS,ioos:station:wmo:42049:1,2013-11-04T14:30:00Z,28.3507,-96.0058,2.0,211.1570954,35.52441977,-99999.0,'11111222,11111222,99999999' 
TABS,ioos:station:wmo:42049:1,2013-11-04T15:00:00Z,28.3507,-96.0058,2.0,213.756572,35.68666137,-99999.0,'11111222,11111222,99999999' 
TABS,ioos:station:wmo:42049:1,2013-11-04T15:30:00Z,28.3507,-96.0058,2.0,201.5045406,38.38188375,-99999.0,'11111222,11111222,99999999' 
TABS,ioos:station:wmo:42049:1,2013-11-04T16:00:00Z,28.3507,-96.0058,2.0,199.6390427,29.18794614,-99999.0,'11111222,11111222,99999999' 